Terug naar catalogus

STARLINK-32746

ActiefCommunicatieVLEO
NORAD 62745·PAYLOAD·🇺🇸 United States

Gelanceerd Jan 21, 2025 vanaf Cape Canaveral Space Force Station

Loading…

Volgende Passages (komende 24 uur)

TLE

VersSource: CelesTrak SupGP

Epoch: Sep 15, 2026, 03:42 UTC

1 62745C 25014L   26258.15465278  .00033291  00000+0  12059-2 0  2581
2 62745  43.0022 163.9643 0001494 276.5788 260.5174 15.27559372    12

Volg STARLINK-32746 in realtime met AllMySat

Download on the App Store